This is the latest recevied weather packets stored in our database for station/object SQ9CIE-4. If no packets are shown the sender has not sent any weather packets the latest 1 day(s).
| Time | Temp. | Humidity | Pressure | Rain* | Wind** | Luminosity | Snow |
|---|---|---|---|---|---|---|---|
| 1777994158 | 26.11° C | 22% | 1004.8 hPa | 0 mm | 3.13 m/s, 212° | 300 W/m² | - |
| 1777993858 | 26.11° C | 22% | 1004.9 hPa | 0 mm | 4.02 m/s, 206° | 275 W/m² | - |
| 1777993558 | 26.11° C | 22% | 1004.8 hPa | 0 mm | 5.36 m/s, 201° | 323 W/m² | - |
| 1777993258 | 26.11° C | 23% | 1004.8 hPa | 0 mm | 5.36 m/s, 180° | 313 W/m² | - |
| 1777992958 | 26.11° C | 23% | 1004.9 hPa | 0 mm | 5.36 m/s, 160° | 320 W/m² | - |
| 1777992658 | 26.11° C | 23% | 1005.2 hPa | 0 mm | 4.92 m/s, 141° | 322 W/m² | - |
| 1777992358 | 26.11° C | 23% | 1005.1 hPa | 0 mm | 8.49 m/s, 188° | 394 W/m² | - |
| 1777992058 | 26.11° C | 24% | 1005.2 hPa | 0 mm | 8.49 m/s, 174° | 370 W/m² | - |
| 1777991758 | 26.11° C | 25% | 1005 hPa | 0 mm | 4.47 m/s, 230° | 436 W/m² | - |
| 1777991458 | 26.11° C | 23% | 1005.3 hPa | 0 mm | 5.36 m/s, 176° | 437 W/m² | - |
| 1777991158 | 26.11° C | 23% | 1005.3 hPa | 0 mm | 7.15 m/s, 197° | 359 W/m² | - |
| 1777990858 | 26.11° C | 23% | 1005.3 hPa | 0 mm | 4.92 m/s, 170° | 306 W/m² | - |
| 1777990558 | 25° C | 24% | 1005.5 hPa | 0 mm | 7.15 m/s, 178° | 470 W/m² | - |
| 1777990258 | 26.11° C | 23% | 1005.6 hPa | 0 mm | 5.81 m/s, 146° | 290 W/m² | - |
| 1777989958 | 26.11° C | 22% | 1005.6 hPa | 0 mm | 5.81 m/s, 212° | 238 W/m² | - |
| 1777989658 | 26.11° C | 23% | 1005.8 hPa | 0 mm | 6.71 m/s, 207° | 480 W/m² | - |
| 1777989358 | 26.11° C | 23% | 1005.6 hPa | 0 mm | 7.15 m/s, 188° | 429 W/m² | - |
| 1777989058 | 26.11° C | 23% | 1005.6 hPa | 0 mm | 5.81 m/s, 193° | 441 W/m² | - |
| 1777988758 | 26.11° C | 23% | 1005.6 hPa | 0 mm | 7.6 m/s, 155° | 557 W/m² | - |
| 1777988458 | 26.11° C | 24% | 1005.8 hPa | 0 mm | 4.02 m/s, 172° | 555 W/m² | - |
| 1777988158 | 26.11° C | 23% | 1005.9 hPa | 0 mm | 8.49 m/s, 207° | 474 W/m² | - |
| 1777987858 | 26.11° C | 24% | 1005.8 hPa | 0 mm | 9.39 m/s, 195° | 495 W/m² | - |
| 1777987558 | 26.11° C | 24% | 1005.9 hPa | 0 mm | 8.94 m/s, 165° | 428 W/m² | - |
| 1777987258 | 26.11° C | 23% | 1005.8 hPa | 0 mm | 6.26 m/s, 251° | 643 W/m² | - |
| 1777986958 | 26.11° C | 24% | 1005.7 hPa | 0 mm | 5.81 m/s, 187° | 552 W/m² | - |
* Rain latest hour (hover to see other rain measurements)
** Current wind speed in m/s (hover to see current wind gust speed)